User: anonymous   Login
Location: Bartshausen
(51.8454°N, 9.8167°E)
Time: 15:43:50
(UTC+00:00)
Language:

Cosmos 1656 Rocket - Orbit

View from above orbital plane
View from above orbital plane
View from above satellite
View from above satellite

Ground track
Ground track

The orbit is defined by the following mean orbital elements,

1 15772U          26017.22264957 +.00000000 +00000-0 +46222-4 0 00008
2 15772  71.1064 196.4589 0036299 209.0143 323.9438 14.21962775    09
Epoch (UTC): 17 January 2026 05:20:36
Eccentricity: 0.0036299
inclination: 71.1064°
perigee height: 793 km
apogee height: 845 km
right ascension of ascending node: 196.4589°
argument of perigee: 209.0143°
revolutions per day: 14.21962775
mean anomaly at epoch: 323.9438°

The dashed part of the orbit path shows where the satellite is in the earth's shadow,  

DLR